This demonstration page uses our WeatherBlox Daily Observations layout. Learn more.

Left ArrowRight Arrow

53.62937, 11.41316

Hourly Observations for November 29, 2021

Temp ( °F °C ) Dew Point ( °F °C ) Humidity (%) Winds ( mph kmh ) Pressure ( in mb ) Visibility ( mi km ) Precip ( " mm )
12:20 am 00:20 Partly Cloudy 32 0 32 0 100 100 WSW 5 7 29.47 998 3 4 N/A
12:50 am 00:50 Partly Cloudy 32 0 32 0 100 100 W 6 9 29.47 998 1 1 N/A
1:20 am 01:20 Mostly Cloudy 32 0 32 0 100 100 WSW 3 6 29.47 998 1 1 N/A
1:50 am 01:50 Mostly Cloudy 32 0 32 0 100 100 WSW 3 6 29.47 998 1 1 N/A
2:20 am 02:20 Mostly Clear 32 0 32 0 100 100 W 5 7 29.47 998 1 1 N/A
2:50 am 02:50 Partly Cloudy 32 0 32 0 100 100 W 5 7 29.50 999 3 5 N/A
3:20 am 03:20 Mostly Clear 32 0 32 0 100 100 WNW 6 9 29.50 999 3 5 N/A
3:50 am 03:50 Mostly Clear 32 0 32 0 100 100 WNW 6 9 29.50 999 2 4 N/A
4:20 am 04:20 Mostly Clear 34 1 32 0 93 93 W 5 7 29.50 999 2 3 N/A
4:50 am 04:50 Mostly Clear 34 1 34 1 100 100 WNW 5 7 29.50 999 2 4 N/A
5:20 am 05:20 Mostly Clear 34 1 32 0 93 93 W 5 7 29.50 999 4 6 N/A
5:50 am 05:50 Mostly Clear 34 1 32 0 93 93 W 6 9 29.53 1000 4 7 N/A
6:20 am 06:20 Cloudy 34 1 32 0 93 93 WNW 6 9 29.53 1000 6 9 N/A
6:50 am 06:50 Cloudy 34 1 34 1 100 100 WNW 5 7 29.53 1000 5 8 N/A
7:20 am 07:20 Cloudy 34 1 34 1 100 100 WNW 6 9 29.56 1001 4 7 N/A
7:50 am 07:50 Cloudy 34 1 34 1 100 100 WNW 7 11 29.56 1001 4 6 N/A
8:20 am 08:20 Cloudy with Mist and Fog 34 1 34 1 100 100 WNW 6 9 29.59 1002 3 5 N/A
8:50 am 08:50 Cloudy with Mist and Fog 34 1 34 1 100 100 WNW 3 6 29.59 1002 3 5 N/A
9:20 am 09:20 Partly Cloudy 34 1 34 1 100 100 W 6 9 29.59 1002 4 7 N/A
9:50 am 09:50 Mostly Cloudy 36 2 34 1 93 93 NW 3 6 29.62 1003 6 9 N/A
10:20 am 10:20 Mostly Cloudy with Mist and Fog 36 2 34 1 93 93 WNW 6 9 29.62 1003 2 3 N/A
10:50 am 10:50 Mostly Cloudy with Mist and Fog 36 2 34 1 93 93 WNW 7 11 29.62 1003 2 3 N/A
11:20 am 11:20 Mostly Cloudy with Mist and Fog 36 2 36 2 100 100 WNW 6 9 29.65 1004 2 4 N/A
11:50 am 11:50 Mostly Sunny 39 4 37 3 93 93 NW 5 7 29.65 1004 30 48 N/A
12:20 pm 12:20 Mostly Cloudy 39 4 34 1 81 81 N 10 17 29.65 1004 30 48 N/A
12:50 pm 12:50 Mostly Cloudy 39 4 34 1 81 81 N 9 15 29.65 1004 30 48 N/A
1:20 pm 13:20 Mostly Cloudy 39 4 34 1 81 81 NNW 8 13 29.65 1004 30 48 N/A
1:50 pm 13:50 Cloudy 39 4 34 1 81 81 NNW 9 15 29.65 1004 30 48 N/A
2:20 pm 14:20 Mostly Cloudy 39 4 34 1 81 81 NNW 8 13 29.65 1004 30 48 N/A
2:50 pm 14:50 Mostly Cloudy 39 4 34 1 81 81 N 8 13 29.68 1005 30 48 N/A
3:20 pm 15:20 Mostly Cloudy 39 4 34 1 81 81 NNW 8 13 29.68 1005 30 48 N/A
3:50 pm 15:50 Mostly Cloudy 37 3 34 1 87 87 NNW 6 9 29.71 1006 30 48 N/A
4:20 pm 16:20 Mostly Cloudy 37 3 34 1 87 87 NNW 6 9 29.71 1006 30 48 N/A
4:50 pm 16:50 Mostly Cloudy 36 2 34 1 93 93 NNW 5 7 29.71 1006 30 48 N/A
5:20 pm 17:20 Mostly Cloudy 37 3 34 1 87 87 NW 3 6 29.74 1007 30 48 N/A
5:50 pm 17:50 Mostly Cloudy 36 2 34 1 93 93 W 5 7 29.74 1007 30 48 N/A
6:20 pm 18:20 Mostly Cloudy 36 2 34 1 93 93 W 5 7 29.74 1007 30 48 N/A
6:50 pm 18:50 Mostly Cloudy 36 2 34 1 93 93 WNW 3 6 29.74 1007 30 48 N/A
7:20 pm 19:20 Mostly Cloudy 34 1 32 0 93 93 WSW 5 7 29.74 1007 30 48 N/A
7:50 pm 19:50 Mostly Cloudy 34 1 32 0 93 93 WSW 5 7 29.74 1007 30 48 N/A
8:20 pm 20:20 Mostly Cloudy 34 1 32 0 93 93 W 6 9 29.74 1007 30 48 N/A
8:50 pm 20:50 Mostly Cloudy 34 1 32 0 93 93 W 5 7 29.74 1007 30 48 N/A
9:20 pm 21:20 Partly Cloudy 34 1 32 0 93 93 W 5 7 29.74 1007 30 48 N/A
9:50 pm 21:50 Mostly Clear 32 0 32 0 100 100 WSW 5 7 29.74 1007 30 48 N/A
10:20 pm 22:20 Partly Cloudy 34 1 32 0 93 93 SSW 3 6 29.71 1006 30 48 N/A
10:50 pm 22:50 Partly Cloudy 32 0 30 -1 93 93 VRB 2 4 29.71 1006 30 48 N/A
11:20 pm 23:20 Partly Cloudy 32 0 32 0 100 100 VRB 3 6 29.71 1006 6 9 N/A
11:50 pm 23:50 Mostly Clear 32 0 32 0 100 100 SSW 5 7 29.71 1006 30 48 N/A

Powered by AerisWeather